• In Netherlands
  • List of Countries
  • For 7 days
  • Water Temperature
  • Satellite Maps
  • Weather Map
  • Weather Widgets
  • user-avatar
    Login

    Hourly Weather Melbourne

    Today, 19 February, Sunday

    Time Temperature Precipitation Wind Pressure Humidity
    00:00 +10°C° 0 mm 3 mps 757 mmHg 76%
    01:00 +10°C° 0 mm 3 mps 757 mmHg 79%
    02:00 +9°C° 0 mm 3 mps 757 mmHg 79%
    03:00 +9°C° 0 mm 3 mps 756 mmHg 80%
    04:00 +10°C° 0 mm 4 mps 756 mmHg 78%
    05:00 +10°C° 0 mm 4 mps 756 mmHg 77%
    06:00 +10°C° 0 mm 4 mps 756 mmHg 76%
    07:00 +11°C° 0 mm 3 mps 756 mmHg 75%
    08:00 +12°C° 0.1 mm 4 mps 756 mmHg 70%
    09:00 +14°C° 0.1 mm 4 mps 756 mmHg 66%
    10:00 +14°C° 0 mm 5 mps 756 mmHg 67%
    11:00 +15°C° 0.4 mm 5 mps 755 mmHg 66%
    12:00 +15°C° 0.4 mm 4 mps 755 mmHg 66%
    13:00 +15°C° 0.4 mm 4 mps 755 mmHg 66%
    14:00 +17°C° 0.6 mm 4 mps 755 mmHg 62%
    15:00 +17°C° 0.6 mm 4 mps 754 mmHg 59%
    16:00 +15°C° 0 mm 5 mps 754 mmHg 63%
    17:00 +14°C° 0.4 mm 5 mps 755 mmHg 65%
    18:00 +13°C° 0.4 mm 4 mps 755 mmHg 67%
    19:00 +13°C° 0.4 mm 4 mps 755 mmHg 68%
    20:00 +12°C° 0.3 mm 4 mps 756 mmHg 73%
    21:00 +11°C° 0.3 mm 3 mps 756 mmHg 77%
    22:00 +10°C° 0 mm 4 mps 756 mmHg 82%
    23:00 +10°C° 0.4 mm 4 mps 756 mmHg 83%

    Tomorrow, 20 February, Monday

    Time Temperature Precipitation Wind Pressure Humidity
    00:00 +10°C° 0.4 mm 4 mps 756 mmHg 85%
    01:00 +10°C° 0.4 mm 4 mps 756 mmHg 87%
    02:00 +10°C° 0.3 mm 4 mps 756 mmHg 88%
    03:00 +10°C° 0.3 mm 4 mps 756 mmHg 88%
    04:00 +10°C° 0.3 mm 4 mps 756 mmHg 89%
    05:00 +11°C° 0.2 mm 4 mps 757 mmHg 88%
    06:00 +11°C° 0.2 mm 4 mps 757 mmHg 87%
    07:00 +11°C° 0.2 mm 4 mps 757 mmHg 86%
    08:00 +13°C° 0.2 mm 4 mps 758 mmHg 79%
    09:00 +14°C° 0.2 mm 4 mps 758 mmHg 72%
    10:00 +17°C° 0.2 mm 4 mps 758 mmHg 65%
    11:00 +18°C° 0.1 mm 4 mps 758 mmHg 59%
    12:00 +20°C° 0.1 mm 4 mps 758 mmHg 53%
    13:00 +21°C° 0.1 mm 4 mps 758 mmHg 46%
    14:00 +21°C° 0.1 mm 4 mps 758 mmHg 46%
    15:00 +21°C° 0.1 mm 4 mps 758 mmHg 45%
    16:00 +21°C° 0.1 mm 4 mps 758 mmHg 44%
    17:00 +20°C° 0 mm 4 mps 759 mmHg 50%
    18:00 +18°C° 0 mm 3 mps 759 mmHg 57%
    19:00 +17°C° 0 mm 3 mps 760 mmHg 63%
    20:00 +14°C° 0 mm 3 mps 760 mmHg 71%
    21:00 +14°C° 0 mm 2 mps 761 mmHg 79%
    22:00 +12°C° 0 mm 2 mps 761 mmHg 88%
    23:00 +12°C° 0 mm 2 mps 762 mmHg 89%

    Day after tomorrow, 21 February, Tuesday

    Time Temperature Precipitation Wind Pressure Humidity
    00:00 +10°C° 0 mm 2 mps 762 mmHg 90%
    01:00 +10°C° 0 mm 2 mps 762 mmHg 91%
    02:00 +10°C° 0 mm 1 mps 762 mmHg 93%
    03:00 +10°C° 0 mm 1 mps 762 mmHg 94%
    04:00 +9°C° 0 mm 1 mps 762 mmHg 96%
    05:00 +10°C° 0 mm 1 mps 763 mmHg 93%
    06:00 +11°C° 0 mm 1 mps 763 mmHg 90%
    07:00 +13°C° 0 mm 1 mps 763 mmHg 87%
    08:00 +15°C° 0 mm 1 mps 763 mmHg 73%
    09:00 +17°C° 0 mm 0 mps 763 mmHg 59%
    10:00 +20°C° 0 mm 0 mps 763 mmHg 45%
    11:00 +22°C° 0 mm 0 mps 763 mmHg 39%
    12:00 +26°C° 0 mm 1 mps 762 mmHg 34%
    13:00 +27°C° 0 mm 1 mps 762 mmHg 29%
    14:00 +27°C° 0 mm 1 mps 761 mmHg 28%
    15:00 +28°C° 0 mm 1 mps 761 mmHg 28%
    16:00 +28°C° 0 mm 2 mps 760 mmHg 28%
    17:00 +25°C° 0 mm 2 mps 761 mmHg 38%
    18:00 +21°C° 0 mm 2 mps 761 mmHg 48%
    19:00 +18°C° 0 mm 2 mps 761 mmHg 57%
    20:00 +17°C° 0 mm 2 mps 761 mmHg 60%
    21:00 +17°C° 0 mm 2 mps 761 mmHg 63%
    22:00 +16°C° 0 mm 2 mps 761 mmHg 66%
    23:00 +16°C° 0 mm 2 mps 761 mmHg 63%

    22 February, Wednesday

    Time Temperature Precipitation Wind Pressure Humidity
    00:00 +16°C° 0 mm 2 mps 760 mmHg 60%
    01:00 +16°C° 0 mm 2 mps 760 mmHg 57%
    02:00 +16°C° 0 mm 2 mps 760 mmHg 55%
    03:00 +17°C° 0 mm 2 mps 759 mmHg 53%
    04:00 +17°C° 0 mm 2 mps 759 mmHg 50%
    05:00 +17°C° 0 mm 3 mps 759 mmHg 47%
    06:00 +18°C° 0 mm 3 mps 758 mmHg 44%
    07:00 +19°C° 0 mm 3 mps 758 mmHg 41%
    08:00 +22°C° 0 mm 4 mps 758 mmHg 36%
    09:00 +25°C° 0 mm 4 mps 758 mmHg 30%
    10:00 +28°C° 0 mm 5 mps 757 mmHg 25%
    11:00 +30°C° 0 mm 5 mps 756 mmHg 23%
    12:00 +32°C° 0 mm 5 mps 755 mmHg 21%
    13:00 +34°C° 0 mm 5 mps 754 mmHg 19%
    14:00 +35°C° 0 mm 5 mps 753 mmHg 17%
    15:00 +35°C° 0 mm 5 mps 753 mmHg 16%
    16:00 +36°C° 0 mm 5 mps 752 mmHg 15%
    17:00 +34°C° 0 mm 4 mps 753 mmHg 20%
    18:00 +32°C° 0 mm 4 mps 753 mmHg 25%
    19:00 +29°C° 0 mm 4 mps 753 mmHg 31%
    20:00 +27°C° 0 mm 3 mps 755 mmHg 37%
    21:00 +25°C° 0 mm 3 mps 756 mmHg 44%
    22:00 +23°C° 0 mm 2 mps 757 mmHg 51%
    23:00 +21°C° 0 mm 3 mps 758 mmHg 53%

    23 February, Thursday

    Time Temperature Precipitation Wind Pressure Humidity
    00:00 +20°C° 0 mm 3 mps 758 mmHg 56%
    01:00 +18°C° 0 mm 3 mps 758 mmHg 59%
    02:00 +17°C° 0 mm 3 mps 759 mmHg 65%
    03:00 +16°C° 0 mm 3 mps 759 mmHg 72%
    04:00 +15°C° 0 mm 2 mps 759 mmHg 78%
    05:00 +16°C° 0 mm 2 mps 760 mmHg 77%
    06:00 +16°C° 0 mm 2 mps 761 mmHg 76%
    07:00 +17°C° 0 mm 2 mps 762 mmHg 74%
    08:00 +18°C° 0 mm 2 mps 762 mmHg 70%
    09:00 +19°C° 0 mm 2 mps 763 mmHg 66%
    10:00 +20°C° 0 mm 2 mps 763 mmHg 62%
    11:00 +21°C° 0 mm 2 mps 763 mmHg 58%
    12:00 +23°C° 0 mm 2 mps 763 mmHg 53%
    13:00 +24°C° 0 mm 2 mps 763 mmHg 49%
    14:00 +24°C° 0 mm 2 mps 762 mmHg 48%
    15:00 +25°C° 0 mm 3 mps 762 mmHg 48%
    16:00 +25°C° 0 mm 3 mps 762 mmHg 47%
    17:00 +22°C° 0 mm 3 mps 763 mmHg 54%
    18:00 +20°C° 0 mm 3 mps 763 mmHg 60%
    19:00 +19°C° 0 mm 3 mps 764 mmHg 67%
    20:00 +17°C° 0 mm 3 mps 764 mmHg 73%
    21:00 +16°C° 0 mm 3 mps 765 mmHg 80%
    22:00 +15°C° 0 mm 2 mps 766 mmHg 86%
    23:00 +15°C° 0 mm 2 mps 766 mmHg 86%

    24 February, Friday

    Time Temperature Precipitation Wind Pressure Humidity
    00:00 +14°C° 0 mm 2 mps 766 mmHg 86%
    01:00 +14°C° 0 mm 2 mps 766 mmHg 86%
    02:00 +14°C° 0 mm 2 mps 766 mmHg 86%
    03:00 +14°C° 0 mm 2 mps 766 mmHg 85%
    04:00 +15°C° 0 mm 2 mps 766 mmHg 85%
    05:00 +15°C° 0 mm 2 mps 766 mmHg 83%
    06:00 +15°C° 0 mm 2 mps 767 mmHg 82%
    07:00 +15°C° 0 mm 2 mps 767 mmHg 81%
    08:00 +16°C° 0 mm 2 mps 767 mmHg 75%
    09:00 +17°C° 0 mm 2 mps 767 mmHg 69%
    10:00 +18°C° 0 mm 3 mps 767 mmHg 63%
    11:00 +19°C° 0 mm 3 mps 767 mmHg 60%
    12:00 +19°C° 0 mm 3 mps 767 mmHg 57%
    13:00 +20°C° 0 mm 3 mps 766 mmHg 54%
    14:00 +20°C° 0 mm 3 mps 766 mmHg 55%
    15:00 +20°C° 0 mm 4 mps 766 mmHg 55%
    16:00 +20°C° 0 mm 4 mps 766 mmHg 55%
    17:00 +19°C° 0 mm 4 mps 766 mmHg 60%
    18:00 +18°C° 0 mm 4 mps 767 mmHg 64%
    19:00 +17°C° 0 mm 3 mps 767 mmHg 69%
    20:00 +17°C° 0 mm 3 mps 767 mmHg 72%
    21:00 +16°C° 0 mm 3 mps 768 mmHg 74%
    22:00 +14°C° 0 mm 3 mps 768 mmHg 77%
    23:00 +14°C° 0 mm 3 mps 768 mmHg 78%
    Show more